Location: Oulou
(10.7667°N, 12.5167°W)
Time: 00:00:56
(UTC+00:00)

Cosmos 1441 Rocket - Pass Details

Date: 20 September 2019
Orbit: 496 x 541 km, 81.1° (Epoch: 16 October)

Event Time Altitude Azimuth Distance (km) Brightness Sun altitude
Rises 19:01:32 0° 177° (S) 2,658 6.8 -4.2°
Reaches altitude 10° 19:03:44 10° 172° (S) 1,762 5.8 -4.8°
Maximum altitude 19:07:30 53° 95° (E) 644 3.3 -5.7°
Drops below altitude 10° 19:11:13 10° 18° (NNE) 1,735 5.7 -6.6°
Sets 19:13:22 0° 13° (NNE) 2,613 6.7 -7.1°
